Temp
15 16 15 16 18 17 15 14 13 14 13 14 14 14 15 16 16 16 16 14 12 10 8 8 7 7 6 6 6 5 5 5 4 4 4 3 3 4 4 4 4 4 3
14 15 15 15 15 14 13 13 13 14 13 13 13 14 14 15 14 15 15 13 11 9 8 7 6 5 4 5 4 4 5 4 3 2 3 3 3 3 4 4 3 3 2
14 15 16 14 14 14 14 13 13 13 13 13 13 14 14 14 14 13 13 12 10 8 7 6 5 4 5 5 4 4 4 3 3 4 3 2 3 2 3 3 2 2 2
13 14 14 15 13 14 14 14 13 13 13 13 13 13 13 13 13 12 12 11 9 7 7 6 6 4 4 4 4 4 3 3 4 3 2 1 1 2 2 2 2 1 2
12 13 13 13 13 12 14 14 13 13 13 13 13 12 13 13 12 12 11 11 9 7 6 5 4 3 3 4 4 3 3 5 3 2 1 0 1 1 1 -0 0 1 1
11 11 12 11 11 12 11 13 13 13 13 12 12 12 12 12 12 11 11 9 8 7 6 3 2 3 3 3 3 3 4 3 2 1 0 0 0 -0 -0 0 -1 -3 -3
11 10 11 11 10 11 11 11 13 12 12 12 11 11 11 11 11 10 10 8 7 6 4 3 2 2 3 3 2 3 3 2 1 1 0 0 -0 -0 -0 -0 -2 -2 -3
10 10 10 10 10 9 10 11 10 11 11 11 11 11 10 11 10 9 10 7 6 5 3 2 2 3 3 2 2 3 2 2 1 1 -0 -1 -1 -0 -1 -2 -3 -2 -1
9 10 10 10 10 9 9 9 11 10 10 10 10 10 10 10 9 9 7 5 4 2 2 2 2 2 1 0 3 2 1 0 0 0 -0 -1 -1 -2 -2 -3 -3 -3 -2
9 9 10 10 10 10 8 9 12 11 9 9 9 9 9 9 8 7 5 4 2 1 1 1 1 1 -0 1 1 1 0 0 -0 -1 -1 -1 -2 -3 -3 -3 -3 -3 -5
8 8 9 9 9 10 9 8 11 10 10 7 8 8 7 7 7 4 4 3 3 2 1 0 -0 -1 1 0 0 0 -0 -0 -1 -1 -1 -2 -3 -3 -3 -3 -3 -4 -4
8 8 8 9 9 9 7 8 8 9 8 11 5 5 5 4 5 2 1 2 2 2 1 -0 -2 -1 0 0 -0 -0 -0 -1 -1 -1 -2 -2 -2 -2 -2 -3 -3 -4 -5
7 7 8 8 8 8 7 7 8 7 9 7 8 4 1 1 2 1 1 1 0 1 -0 -1 -1 0 -0 -0 -0 -0 -1 -1 -2 -2 -2 -2 -2 -2 -2 -3 -3 -3 -4
7 7 7 7 8 6 7 7 7 7 7 7 4 3 2 0 1 0 0 -0 -0 -1 -2 -2 -0 -0 -1 -1 -1 -1 -1 -2 -2 -2 -2 -2 -2 -2 -2 -3 -3 -3 -3
6 6 6 7 7 5 6 6 6 6 7 8 5 5 2 1 1 0 -1 -1 -1 -2 -3 -2 -1 -2 -2 -2 -2 -2 -2 -2 -2 -3 -3 -2 -3 -3 -3 -3 -4 -3 -4
5 5 5 5 4 4 4 4 4 4 5 4 3 3 0 1 -0 -1 -0 -1 -2 -4 -4 -1 -2 -2 -2 -2 -2 -2 -2 -2 -2 -3 -3 -2 -3 -3 -3 -4 -4 -4 -5
3 4 3 3 3 3 3 3 2 0 0 1 1 2 1 0 -0 -0 -1 -2 -3 -3 -2 -1 -2 -2 -2 -2 -3 -3 -3 -3 -3 -3 -3 -3 -4 -3 -4 -4 -4 -5 -6
1 1 2 2 1 1 1 1 1 1 -1 -2 -1 -0 -1 0 -0 -2 -3 -4 -4 -3 -2 -1 -2 -2 -2 -2 -3 -3 -3 -3 -3 -4 -4 -4 -4 -3 -4 -5 -5 -5 -6
-0 -0 0 0 0 -1 -1 -1 -0 -1 -1 -3 -2 -1 -1 -1 -2 -3 -4 -4 -3 -2 -2 -2 -2 -2 -3 -3 -3 -3 -4 -4 -4 -5 -5 -5 -4 -4 -4 -5 -5 -6 -7
-1 -1 -1 -1 -2 -2 -2 -1 -2 -3 -3 -4 -2 -2 -2 -3 -4 -4 -4 -3 -3 -2 -2 -4 -3 -3 -3 -3 -3 -4 -4 -4 -5 -5 -5 -6 -5 -5 -5 -5 -5 -7 -7
-2 -3 -3 -3 -3 -3 -3 -3 -3 -4 -3 -3 -3 -3 -4 -4 -4 -5 -5 -5 -4 -3 -4 -4 -3 -3 -4 -4 -4 -4 -4 -5 -5 -5 -6 -6 -6 -6 -6 -6 -6 -6 -7
-3 -3 -3 -3 -3 -3 -3 -3 -3 -3 -3 -3 -4 -4 -4 -4 -5 -5 -5 -5 -4 -4 -5 -4 -4 -4 -4 -4 -4 -5 -5 -5 -5 -6 -6 -6 -6 -6 -6 -6 -6 -6 -7
-3 -3 -3 -3 -3 -3 -3 -3 -3 -3 -3 -3 -4 -4 -4 -4 -4 -5 -5 -5 -5 -6 -5 -5 -4 -4 -4 -5 -5 -6 -6 -6 -6 -7 -7 -7 -7 -7 -7 -7 -7 -7 -7
-3 -3 -3 -3 -3 -4 -4 -4 -4 -4 -4 -4 -4 -4 -4 -4 -5 -5 -5 -6 -6 -6 -5 -5 -5 -5 -5 -6 -6 -6 -6 -7 -7 -7 -8 -7 -7 -7 -7 -7 -7 -7 -7
-3 -3 -3 -3 -4 -4 -4 -4 -4 -4 -4 -4 -4 -4 -4 -5 -6 -6 -6 -5 -5 -5 -5 -5 -6 -6 -6 -6 -6 -7 -7 -7 -8 -8 -8 -8 -8 -8 -8 -8 -8 -8 -8
-5 -5 -5 -5 -5 -5 -5 -5 -5 -5 -5 -5 -5 -5 -6 -6 -6 -6 -6 -6 -6 -6 -6 -6 -6 -6 -6 -7 -7 -7 -7 -7 -8 -8 -8 -9 -9 -9 -9 -9 -9 -9 -9
Height
1430 1423 1418 1413 1409 1406 1404 1406 1408 1410 1411 1414 1419 1425 1428 1433 1438 1446 1452 1458 1460 1463 1468 1473 1480 1486 1490 1491 1492 1494 1490 1495 1497 1499 1500 1499 1497 1493 1489 1484 1479 1475 1470
1423 1417 1410 1403 1399 1395 1394 1397 1401 1401 1401 1406 1413 1417 1420 1424 1430 1436 1440 1446 1452 1457 1462 1465 1472 1473 1480 1489 1489 1492 1487 1491 1493 1491 1495 1494 1491 1487 1483 1478 1474 1469 1464
1415 1409 1402 1396 1392 1390 1388 1388 1391 1393 1396 1401 1403 1406 1409 1416 1421 1426 1432 1438 1445 1450 1455 1459 1463 1468 1472 1477 1483 1483 1486 1488 1487 1487 1489 1488 1485 1482 1477 1472 1469 1464 1460
1409 1404 1396 1391 1386 1383 1382 1381 1383 1387 1389 1391 1394 1399 1402 1408 1412 1418 1426 1430 1438 1445 1450 1453 1457 1463 1468 1472 1476 1478 1481 1481 1484 1481 1484 1483 1480 1477 1472 1468 1464 1460 1457
1404 1399 1394 1386 1381 1377 1375 1375 1376 1378 1381 1383 1386 1391 1394 1400 1405 1411 1418 1422 1427 1436 1443 1447 1451 1458 1465 1468 1470 1472 1475 1477 1477 1477 1479 1479 1475 1472 1467 1464 1460 1457 1453
1401 1394 1389 1382 1379 1376 1371 1369 1370 1370 1372 1376 1380 1382 1386 1393 1399 1404 1410 1417 1421 1428 1435 1444 1450 1455 1459 1463 1465 1468 1472 1472 1473 1474 1475 1473 1471 1468 1464 1461 1458 1453 1449
1396 1390 1384 1380 1376 1374 1371 1369 1366 1366 1368 1368 1375 1378 1381 1386 1392 1399 1401 1412 1417 1422 1429 1435 1442 1452 1455 1458 1462 1464 1466 1468 1470 1470 1471 1470 1468 1464 1461 1459 1456 1452 1448
1390 1385 1380 1375 1371 1370 1368 1366 1365 1365 1366 1367 1370 1374 1376 1380 1384 1390 1394 1406 1411 1418 1425 1433 1440 1446 1450 1453 1458 1461 1462 1465 1466 1465 1468 1468 1465 1461 1460 1457 1454 1449 1446
1383 1378 1374 1370 1365 1363 1362 1361 1358 1361 1363 1364 1365 1369 1371 1375 1378 1384 1389 1399 1407 1415 1422 1428 1435 1441 1445 1449 1453 1456 1459 1462 1463 1464 1464 1464 1463 1460 1458 1456 1451 1445 1441
1375 1369 1366 1362 1358 1353 1352 1352 1349 1355 1359 1359 1360 1362 1366 1372 1373 1378 1385 1393 1402 1410 1418 1425 1433 1437 1443 1447 1450 1453 1456 1459 1461 1462 1462 1461 1461 1459 1455 1454 1450 1445 1441
1366 1360 1355 1353 1348 1345 1342 1342 1342 1345 1348 1354 1354 1356 1360 1364 1368 1374 1380 1384 1392 1400 1414 1420 1426 1435 1441 1444 1448 1451 1455 1457 1459 1461 1461 1460 1460 1458 1455 1453 1449 1445 1442
1356 1349 1345 1341 1337 1333 1330 1331 1334 1335 1340 1336 1347 1349 1353 1358 1363 1368 1377 1382 1393 1402 1409 1418 1426 1433 1438 1442 1446 1448 1451 1455 1456 1459 1459 1459 1460 1456 1454 1451 1447 1445 1442
1345 1340 1336 1332 1328 1324 1322 1324 1326 1329 1329 1333 1335 1340 1351 1343 1358 1368 1378 1387 1396 1403 1409 1417 1425 1430 1436 1439 1442 1444 1449 1452 1454 1456 1457 1458 1456 1454 1451 1450 1446 1445 1441
1335 1331 1327 1324 1319 1315 1313 1314 1316 1319 1323 1327 1328 1331 1341 1351 1357 1365 1374 1385 1393 1401 1409 1415 1421 1427 1433 1437 1440 1441 1444 1448 1452 1455 1455 1455 1454 1453 1450 1448 1445 1442 1439
1327 1323 1319 1315 1312 1309 1307 1307 1308 1311 1313 1317 1320 1322 1334 1340 1350 1356 1370 1380 1391 1398 1407 1414 1419 1423 1429 1433 1438 1441 1443 1444 1448 1453 1454 1452 1452 1451 1449 1447 1445 1442 1438
1319 1315 1311 1308 1306 1304 1303 1304 1305 1308 1308 1311 1316 1322 1332 1338 1348 1365 1373 1379 1388 1398 1405 1413 1417 1422 1426 1431 1435 1439 1440 1443 1445 1450 1451 1451 1450 1448 1448 1447 1445 1442 1439
1313 1309 1305 1302 1301 1301 1300 1300 1301 1308 1312 1312 1317 1323 1332 1339 1355 1365 1371 1380 1390 1396 1405 1411 1417 1421 1426 1431 1433 1436 1440 1442 1443 1447 1449 1449 1448 1446 1447 1446 1444 1442 1440
1308 1304 1302 1299 1298 1299 1299 1297 1300 1304 1308 1313 1323 1329 1339 1344 1354 1364 1372 1381 1388 1398 1406 1412 1417 1421 1425 1428 1431 1434 1438 1441 1443 1445 1447 1447 1446 1445 1445 1445 1444 1443 1441
1306 1303 1300 1299 1298 1299 1300 1299 1301 1307 1312 1318 1325 1333 1340 1348 1358 1367 1374 1380 1389 1398 1406 1411 1417 1421 1424 1427 1429 1432 1436 1439 1442 1445 1445 1447 1445 1443 1443 1444 1443 1443 1442
1306 1302 1301 1301 1302 1303 1302 1303 1312 1314 1318 1323 1326 1333 1342 1352 1361 1368 1375 1385 1393 1401 1407 1413 1417 1420 1423 1425 1428 1431 1432 1436 1441 1442 1443 1444 1443 1441 1442 1443 1442 1443 1442
1308 1308 1307 1307 1308 1309 1311 1315 1318 1321 1325 1330 1335 1340 1347 1354 1362 1369 1378 1386 1395 1403 1408 1414 1416 1418 1421 1424 1426 1428 1430 1433 1436 1438 1441 1441 1441 1439 1439 1441 1441 1442 1442
1317 1316 1316 1316 1318 1319 1320 1322 1324 1328 1334 1339 1344 1350 1357 1364 1370 1377 1383 1391 1398 1402 1408 1413 1414 1417 1420 1422 1424 1426 1428 1430 1431 1434 1437 1438 1438 1437 1437 1438 1439 1440 1440
1327 1326 1326 1327 1328 1329 1330 1334 1337 1342 1346 1350 1355 1361 1367 1371 1377 1382 1388 1394 1398 1403 1407 1409 1412 1415 1417 1419 1421 1423 1425 1427 1429 1431 1434 1435 1435 1434 1435 1435 1436 1437 1439
1340 1340 1340 1341 1342 1343 1345 1347 1352 1357 1359 1362 1366 1370 1374 1378 1383 1386 1390 1394 1399 1401 1404 1406 1409 1412 1414 1416 1418 1420 1422 1424 1426 1427 1429 1430 1430 1431 1432 1433 1434 1434 1435
1353 1353 1352 1353 1355 1356 1358 1361 1364 1365 1366 1370 1372 1375 1378 1381 1385 1388 1391 1394 1397 1399 1401 1403 1406 1408 1410 1412 1413 1415 1417 1420 1421 1423 1424 1425 1426 1427 1428 1428 1430 1431 1431
1363 1362 1362 1364 1365 1366 1367 1368 1369 1371 1372 1374 1376 1378 1381 1382 1385 1388 1390 1392 1395 1397 1399 1400 1402 1403 1405 1406 1408 1409 1410 1411 1414 1416 1418 1420 1421 1422 1423 1424 1425 1426 1427
Wind_Speed
31 28 30 29 33 37 39 41 44 47 47 49 47 42 43 42 45 40 39 37 38 39 36 34 28 21 17 15 13 10 6 3 4 9 13 18 21 22 23 25 26 25 23
34 30 29 26 28 27 29 34 39 46 48 47 42 40 42 42 40 41 42 42 42 40 40 36 29 24 18 15 11 10 4 6 9 8 17 18 19 20 22 24 24 25 25
37 34 29 29 25 24 24 29 35 43 42 40 44 41 43 41 38 43 44 41 41 41 41 38 32 24 25 25 21 9 10 11 8 11 16 17 18 19 21 23 24 25 28
41 36 29 26 26 25 25 27 32 39 37 39 42 41 42 41 40 41 41 38 40 41 40 35 31 33 27 23 14 11 12 7 13 11 14 15 15 18 20 23 26 27 29
40 40 35 25 24 24 28 30 33 32 37 37 40 40 41 40 39 39 41 41 44 46 38 34 32 28 23 17 13 9 8 14 11 10 12 13 13 17 19 22 26 28 31
39 41 39 27 21 26 24 29 33 33 34 35 40 40 38 38 40 40 39 43 47 46 42 34 30 26 21 12 7 10 14 11 9 8 9 11 11 15 18 22 26 27 31
40 39 39 35 23 23 21 23 28 30 32 33 36 35 37 39 39 38 37 46 47 45 42 37 32 25 16 14 14 17 13 10 8 7 7 9 12 15 18 21 24 27 28
40 39 38 37 29 25 23 19 18 26 30 31 33 36 38 38 36 38 38 48 47 43 38 31 29 25 18 14 19 16 10 8 6 4 6 8 10 13 16 19 23 27 29
41 41 40 34 36 25 28 21 18 23 28 32 34 37 38 37 38 39 45 49 45 41 34 31 30 23 20 21 19 12 9 6 5 4 5 7 9 12 15 19 22 26 31
45 45 40 36 33 36 31 35 35 30 31 38 36 38 38 37 38 41 50 51 47 40 36 33 25 24 22 20 14 10 8 5 4 4 4 6 8 9 12 17 21 24 26
48 46 44 34 36 36 33 34 34 39 32 40 37 38 38 38 41 47 54 52 46 43 38 32 31 27 23 15 12 10 8 5 4 3 3 3 5 7 9 13 17 20 22
47 47 41 35 36 35 31 32 35 38 39 28 41 38 39 41 48 54 53 47 41 38 36 33 30 25 18 14 12 10 8 6 4 1 1 3 4 5 8 12 14 15 16
46 43 33 33 35 28 27 34 40 37 34 38 34 43 42 43 53 52 41 35 35 35 36 33 28 22 18 15 13 10 8 6 3 1 1 3 6 8 10 11 13 14 14
42 35 30 28 31 23 25 39 42 46 41 40 45 45 42 51 54 46 41 36 34 37 35 32 28 22 18 15 13 11 10 7 4 1 1 3 6 8 10 13 15 17 20
38 32 28 26 27 20 28 39 40 43 43 44 48 45 52 53 55 52 44 38 41 40 36 32 27 25 22 18 14 11 10 8 5 1 2 4 6 7 10 12 14 17 20
33 27 24 25 23 22 29 36 38 41 43 41 44 46 45 53 54 43 37 42 42 38 36 30 27 24 21 17 15 12 10 7 5 1 1 3 5 8 9 10 12 15 18
24 23 23 22 21 24 31 35 35 24 30 35 38 40 45 50 43 40 41 41 38 37 31 29 27 24 20 17 14 12 9 7 4 2 1 3 4 7 8 10 11 14 16
18 18 18 17 19 25 30 30 33 33 32 30 33 39 43 44 41 41 43 41 37 32 29 26 23 21 19 16 14 10 9 6 4 3 1 2 4 6 7 9 11 13 13
16 15 14 14 16 20 26 29 28 31 32 38 44 41 38 37 40 43 42 37 34 31 27 23 20 18 16 14 12 10 8 6 6 5 3 3 3 6 7 7 9 9 11
12 11 10 8 11 17 23 26 32 35 39 42 46 40 37 43 42 41 36 31 29 26 24 21 19 16 14 12 10 9 8 8 9 8 7 6 3 3 6 6 6 6 8
11 7 1 7 15 20 24 28 31 35 37 35 34 36 42 45 43 39 34 31 25 21 20 17 16 14 12 10 9 8 8 10 11 11 11 9 6 3 3 5 5 4 4
11 9 8 9 10 14 19 21 23 25 26 29 33 36 35 32 32 31 28 23 22 19 16 15 12 10 10 8 8 9 8 8 9 11 11 10 9 6 4 4 4 3 3
23 22 20 19 17 16 16 18 20 23 28 31 31 28 26 26 26 25 21 19 15 15 15 13 13 13 11 9 7 7 7 8 9 10 9 9 9 9 7 6 5 4 4
37 36 35 32 30 29 28 27 26 25 25 23 21 19 18 16 14 12 12 13 15 15 15 14 14 13 12 12 11 10 9 10 14 14 13 11 10 10 9 8 8 7 6
28 28 28 28 27 27 25 23 21 19 16 14 12 10 9 7 6 8 10 12 13 14 14 15 16 16 16 17 16 16 17 18 18 19 17 15 14 12 11 10 10 10 9
29 27 27 25 24 22 20 18 16 14 12 10 8 7 7 7 7 8 9 10 12 14 15 16 17 18 19 21 22 22 21 21 23 22 23 20 18 16 14 12 11 11 11
Wind_Direction
338 329 318 300 284 276 269 261 251 251 252 241 243 254 247 240 238 234 232 234 229 220 215 212 209 210 210 201 197 207 192 231 273 289 292 297 302 308 317 324 325 329 335
335 333 325 321 304 284 268 258 249 244 252 248 242 251 245 237 233 231 230 228 220 215 211 206 202 195 205 207 212 213 240 277 270 298 285 296 304 314 324 327 333 340 343
332 332 329 322 314 304 284 262 252 246 249 251 243 246 242 233 228 229 228 226 218 215 213 207 204 205 206 222 222 239 271 279 297 275 286 296 311 323 327 333 342 345 347
336 330 330 326 318 304 290 273 260 251 254 247 241 244 236 230 227 226 222 215 216 211 212 212 220 215 224 207 231 251 268 276 256 276 285 299 317 323 334 341 345 344 346
336 334 331 318 326 307 291 278 264 257 251 245 238 240 230 227 227 227 217 214 215 210 209 212 212 210 209 208 224 238 232 235 255 271 283 302 321 329 343 343 343 343 343
332 335 333 326 312 314 315 271 260 250 244 246 238 236 227 225 228 223 217 216 212 211 207 202 196 198 197 213 249 205 222 240 253 265 284 304 325 333 341 346 344 341 343
327 329 334 336 310 297 305 281 265 251 248 240 237 234 226 224 224 220 219 218 211 208 204 199 193 195 195 221 203 214 229 240 247 266 289 312 331 340 343 343 344 342 337
325 322 327 329 325 296 290 297 280 270 260 251 245 233 224 225 223 216 220 211 211 205 204 201 199 196 216 211 196 215 221 233 251 274 303 317 329 338 340 344 341 339 340
324 322 321 317 320 303 277 277 300 303 269 252 241 231 228 221 218 218 213 208 203 194 198 195 194 207 193 184 201 202 207 227 254 280 301 311 337 339 340 341 342 345 343
320 319 316 310 312 307 277 262 271 280 292 249 239 231 231 221 218 216 207 204 191 190 189 189 195 184 177 191 190 190 196 204 234 270 298 315 326 331 342 342 343 345 344
315 314 311 303 307 303 279 262 261 249 270 240 233 227 225 220 212 207 208 199 196 187 185 182 178 171 182 183 180 181 185 190 204 237 270 298 315 335 342 345 347 346 340
310 308 307 302 307 301 270 258 245 233 230 243 229 222 217 213 206 194 193 196 189 182 184 177 166 170 177 177 177 176 177 185 185 219 312 305 312 347 357 355 355 353 340
307 304 302 303 306 294 261 250 240 229 224 220 227 220 203 195 191 193 193 186 188 188 173 162 163 170 173 172 172 165 170 173 171 162 307 339 350 360 3 359 356 357 357
305 301 301 302 311 294 273 251 240 231 224 227 211 208 202 191 189 185 182 184 181 170 160 162 169 170 169 167 162 163 166 162 165 203 347 6 5 3 1 359 360 360 5
301 298 299 298 316 292 268 246 238 234 233 226 222 212 200 192 188 183 179 171 168 168 162 169 168 165 165 160 160 164 157 155 152 207 349 16 18 16 9 2 360 2 8
298 296 300 306 308 286 256 231 224 228 225 220 217 210 193 192 181 175 174 175 170 164 167 175 168 166 161 161 164 162 154 150 148 169 5 21 21 22 17 6 6 7 10
300 302 305 305 291 257 231 223 209 198 201 204 212 216 207 185 172 181 178 171 164 166 179 172 168 163 162 166 163 159 154 156 152 167 13 24 22 23 17 6 10 11 15
307 309 306 298 271 237 218 209 202 191 178 172 191 195 180 171 179 174 168 162 165 176 177 169 167 165 169 169 169 166 178 179 181 205 275 353 12 15 16 9 10 11 16
317 311 300 280 250 221 207 193 190 183 174 164 164 169 173 173 169 167 166 162 167 170 170 166 173 173 172 174 173 184 195 206 220 239 271 311 6 13 5 10 9 9 17
335 322 305 270 217 189 177 172 169 164 160 160 163 160 164 162 162 164 159 164 166 172 164 175 178 176 179 178 185 199 211 227 235 244 256 268 303 3 6 1 7 9 18
15 6 337 154 156 159 160 160 155 153 150 154 156 159 160 165 161 157 159 166 168 166 170 183 183 184 188 196 205 212 229 239 240 242 247 252 262 284 324 343 351 349 22
57 72 91 109 128 137 139 144 148 150 151 151 149 154 160 161 158 157 159 159 173 179 178 193 192 201 215 222 230 232 234 232 237 233 238 247 250 252 263 285 314 315 325
78 79 81 85 92 101 111 125 135 142 144 142 142 145 152 155 159 160 167 177 174 184 194 200 208 212 217 225 228 238 244 241 243 241 249 250 246 251 249 253 267 288 282
81 81 83 85 88 91 95 99 106 115 120 125 130 132 137 142 154 161 164 176 192 203 211 216 214 216 227 239 245 261 271 259 254 255 254 254 252 249 249 249 254 258 257
76 79 78 76 80 87 96 101 106 106 101 103 108 116 131 144 158 185 204 214 218 221 220 217 219 231 243 245 245 257 267 267 258 252 250 252 252 250 250 250 248 249 246
73 75 79 82 84 87 90 94 95 103 114 126 138 152 166 178 192 203 208 211 213 218 224 227 229 236 241 244 253 262 263 250 244 241 242 247 246 246 249 251 249 245 245